Back to catalog

CENTISPACE-1 S7

AliveNavigationLEO
NORAD 62576·PAYLOAD·🇨🇳 China

Launched Jan 13, 2025 from Yellow Sea Launch Area

Loading…

Next Passes (next 24 hours)

TLE

FreshSource: Space-Track

Epoch: Sep 14, 2026, 13:56 UTC

1 62576U 25007B   26257.58105346 -.00000054  00000-0  82173-4 0  9999
2 62576  54.9784 339.3397 0010790 235.7086 124.2850 13.80622860 87069

Track CENTISPACE-1 S7 in real time with AllMySat

Download on the App Store